[[{"header":{"parameterUnit":"m.s-1","parameterCategory":1,"la1":30.2991,"la2":30.254,"lo1":-89.0895,"lo2":-89.0444,"dy":0.0017,"dx":0.0017,"nx":28,"ny":28,"refTime":"2024-08-12T03:00:00:Z","depth":0,"parameterNumber":2,"parameterNumberName":"U-component_of_WINDS"},"data":[0,0,0,0,0,0,0,0,0,0,0,0,0,0,0,0,0,0,0,0,0,0,0,0,0,0,0,0,0,0,0,0,0,0,0,0,0,0,0,0,0,0,0,0,0,0,0,0,0,0,0,0,0,0,0,0,0,0,4.5286,4.5288,0,4.5404,4.5406,4.5407,4.5351,4.5348,4.5345,4.5342,4.546,4.5466,4.5472,0,0,0,0,0,0,0,0,0,0,0,0,0,4.5009,4.5014,4.5286,4.5288,4.5289,4.5404,4.5406,4.5407,4.5352,4.5348,4.5345,4.5341,4.5458,4.5465,4.5472,0,0,0,0,0,0,0,0,0,0,0,0,0,4.5128,4.5016,4.5286,4.5276,4.5276,4.5404,4.5406,4.5408,4.5353,4.5348,4.5344,4.5339,4.5456,4.5464,4.5473,4.5617,0,0,4.55,4.5504,0,0,0,0,0,0,0,0,4.5122,4.5139,4.5276,4.5276,4.5277,4.5359,4.5351,4.5478,4.5354,4.5323,4.5342,4.5337,4.543,4.544,4.5472,4.5623,4.5628,4.5501,4.5506,4.551,4.5513,0,0,0,0,0,0,0,4.5113,4.5133,4.5333,4.5278,4.5279,4.5263,4.5275,4.5375,4.54,4.5326,4.5322,4.5337,4.5429,4.5464,4.5475,4.563,4.5501,4.5509,4.5514,4.5518,4.5901,4.5906,0,0,0,0,0,0,4.5106,4.5127,4.5329,4.5336,4.5187,4.5272,4.5286,4.5337,4.5399,4.5404,4.534,4.5334,4.5451,4.5464,4.5479,4.5649,4.551,4.5519,4.5524,4.5896,4.5902,4.5907,0,0,0,0,0,0,4.51,4.5125,4.5324,4.5231,4.5255,4.5282,4.534,4.5341,4.5376,4.541,4.5414,4.5371,4.5448,4.5466,4.5583,4.5652,4.5523,4.5531,4.5891,4.5898,4.5905,4.5992,0,0,0,0,0,0,4.5093,4.5123,4.5179,4.5232,4.526,4.5428,4.5344,4.5347,4.5392,4.5384,4.544,4.5445,4.5446,4.557,4.5592,4.5662,4.5538,4.5884,4.5894,4.5902,4.5983,4.6001,4.6017,0,0,0,0,0,4.5083,4.5199,4.5182,4.5207,4.5331,4.5432,4.5448,4.5447,4.5398,4.5453,4.5475,4.5443,4.5642,4.5582,4.5606,4.568,4.588,4.5891,4.5902,4.5975,4.5998,4.6017,0,0,0,0,0,0,4.5152,4.5206,4.5188,4.5325,4.5375,4.5423,4.5493,4.5472,4.5535,4.5525,4.5521,4.5534,4.5654,4.5679,4.5612,4.5822,4.5753,4.5769,4.5801,4.5822,4.5839,4.5829,4.5545,0,0,0,0,0,4.5184,4.5263,4.5305,4.5422,4.5447,4.5466,4.551,4.5505,4.5556,4.5577,4.5607,4.5656,4.5729,4.5778,4.5847,4.5987,4.5997,4.605,4.6067,4.6081,4.6094,4.6167,4.619,4.5943,4.5943,4.5943,0,0,4.5249,4.5288,4.5338,4.5436,4.5474,4.5554,4.5484,4.5572,4.5631,4.559,4.5701,4.5725,4.578,4.5908,4.5966,4.5933,4.6164,4.6095,4.6105,4.6111,4.618,4.6204,4.6224,4.5951,4.5949,4.5948,0,0,4.5408,4.5447,4.5547,4.5587,4.5645,4.5657,4.5681,4.5733,4.5747,4.5859,4.5829,4.5898,4.6025,4.6064,4.6101,4.6274,4.6246,4.6297,4.6385,4.6456,4.6476,4.6493,4.6551,4.6573,4.6311,4.6311,4.6311,0,4.5482,4.5603,4.5601,4.5692,4.5734,4.5702,4.5802,4.584,4.5918,4.5947,4.5909,4.6066,4.6101,4.6236,4.6278,4.631,4.6335,4.629,4.6473,4.649,4.6506,4.6562,4.6585,4.6317,4.6316,4.6315,4.6315,0,4.5688,4.5772,4.5846,4.5922,4.5974,4.6068,4.608,4.6132,4.6123,4.6138,4.6251,4.6291,4.6367,4.6399,4.6391,4.6533,4.651,4.6473,4.6403,4.6535,4.6587,4.6609,4.6325,4.6323,4.6321,4.632,0,0,4.5894,4.5968,4.5994,4.6027,4.6089,4.6153,4.6246,4.632,4.6364,4.6419,4.6494,4.6602,4.6567,4.6609,4.6605,4.6668,4.6798,4.6622,4.6623,4.6651,4.6953,4.6979,4.7004,4.6781,4.6785,4.6789,4.6948,0,4.6055,4.6218,4.6219,4.6367,4.6443,4.6413,4.6493,4.6538,4.6555,4.662,4.6638,4.6713,4.6664,4.6688,4.6749,4.6769,4.6858,4.6758,4.6848,4.6852,4.6833,4.7032,4.7059,4.7207,4.6968,4.6972,4.6974,0,4.6265,4.6326,4.6483,4.6531,4.6563,4.6635,4.6702,4.6767,4.6817,4.6824,4.687,4.6856,4.6948,4.6878,4.7003,4.6934,4.6972,4.6987,4.6993,4.6999,4.6919,4.704,4.7255,4.7276,4.7007,4.7005,4.7002,0,4.6395,4.6517,4.6626,4.6655,4.6716,4.6767,4.6794,4.684,4.6884,4.6943,4.6971,4.7039,4.7076,4.7129,4.7133,4.7082,4.7258,4.7188,4.7264,4.7264,4.73,4.7297,4.7521,4.7329,4.7329,4.7329,4.7328,0,4.6573,4.6669,4.6685,4.6751,4.6857,4.6857,4.6961,4.6984,4.7025,4.7094,4.7073,4.7137,4.714,4.7206,4.721,4.7311,4.7329,4.7335,4.7334,4.7336,4.7334,4.7357,4.7346,4.7335,4.7333,4.7332,4.7331,0,4.6736,4.675,4.6866,4.6914,4.6928,4.7003,4.7043,4.7105,4.712,4.7207,4.7227,4.725,4.7326,4.7336,4.7425,4.7427,4.7548,4.7538,4.7531,4.7528,4.7602,4.7593,4.7846,4.7877,4.7669,4.7671,4.7672,0,4.6847,4.692,4.6975,4.702,4.705,4.7123,4.7168,4.7171,4.7218,4.7279,4.7334,4.7408,4.7467,4.759,4.7613,4.7681,4.767,4.7754,4.768,4.7678,4.7667,4.7661,4.7667,4.7767,4.7769,4.7771,4.7773,0,4.7042,4.7045,4.7111,4.718,4.7234,4.7287,4.7338,4.7375,4.7384,4.7438,4.7516,4.7562,4.7653,4.7725,4.7792,4.7818,4.7796,4.7796,4.7817,4.7817,4.7808,4.781,4.7566,4.779,4.7788,4.7787,4.7786,4.7785,4.718,4.7242,4.7291,4.7364,4.7402,4.745,4.751,4.7532,4.7597,4.7671,4.7669,4.7754,4.78,4.7887,4.7918,4.7983,4.7955,4.7985,4.7992,4.7999,4.8005,4.7801,4.7995,4.7995,4.7994,4.7994,4.7994,0,4.7371,4.74,4.7468,4.7539,4.7596,4.7573,4.7627,4.7675,4.7751,4.7796,4.7855,4.7943,4.8013,4.8042,4.811,4.8157,4.8148,4.8174,4.8169,4.8175,4.8027,4.8001,4.818,4.818,4.818,4.818,4.818,4.818,4.7477,4.758,4.7589,4.771,4.7739,4.7822,4.7855,4.7897,4.7933,4.8033,4.8091,4.811,4.8148,4.8218,4.8281,4.8287,4.8312,4.8342,4.8344,4.8205,4.8186,4.8168,4.8143,4.8348,4.8348,4.8485,4.8486,4.8487]},{"header":{"parameterUnit":"m.s-1","parameterCategory":1,"la1":30.2991,"la2":30.254,"lo1":-89.0895,"lo2":-89.0444,"dy":0.0017,"dx":0.0017,"nx":28,"ny":28,"refTime":"2024-08-12T03:00:00:Z","depth":0,"parameterNumber":3,"parameterNumberName":"V-component_of_WINDS"},"data":[0,0,0,0,0,0,0,0,0,0,0,0,0,0,0,0,0,0,0,0,0,0,0,0,0,0,0,0,0,0,0,0,0,0,0,0,0,0,0,0,0,0,0,0,0,0,0,0,0,0,0,0,0,0,0,0,0,0,2.0495,2.0496,0,2.0555,2.0556,2.0557,2.0543,2.0542,2.054,2.0539,2.06,2.0603,2.0606,0,0,0,0,0,0,0,0,0,0,0,0,0,2.0366,2.0368,2.0495,2.0496,2.0496,2.0555,2.0556,2.0557,2.0543,2.0542,2.054,2.0539,2.0599,2.0603,2.0606,0,0,0,0,0,0,0,0,0,0,0,0,0,2.0423,2.0369,2.0495,2.0497,2.0497,2.0555,2.0556,2.0557,2.0543,2.0541,2.054,2.0538,2.0598,2.0602,2.0606,2.0666,0,0,2.0619,2.062,0,0,0,0,0,0,0,0,2.042,2.0428,2.0495,2.0496,2.0497,2.054,2.0533,2.0593,2.0544,2.0526,2.0539,2.0537,2.0582,2.0587,2.0602,2.0668,2.0671,2.0619,2.0621,2.0623,2.0624,0,0,0,0,0,0,0,2.0416,2.0426,2.0519,2.0496,2.0498,2.0494,2.05,2.0544,2.0562,2.0527,2.0526,2.0534,2.0582,2.0598,2.0603,2.0672,2.0619,2.0622,2.0625,2.0627,2.0789,2.079,0,0,0,0,0,0,2.0412,2.0422,2.0517,2.052,2.0454,2.0497,2.0504,2.0528,2.0562,2.0566,2.0535,2.0533,2.0592,2.0599,2.0605,2.0676,2.0623,2.0627,2.0629,2.0787,2.0789,2.0791,0,0,0,0,0,0,2.0409,2.042,2.0514,2.0471,2.0483,2.0501,2.0528,2.053,2.0546,2.0568,2.0571,2.0549,2.0591,2.06,2.065,2.0678,2.0629,2.0632,2.0785,2.0788,2.079,2.0819,0,0,0,0,0,0,2.0405,2.0419,2.0443,2.0472,2.0485,2.0559,2.053,2.0532,2.0553,2.0551,2.0581,2.0585,2.059,2.0645,2.0654,2.0683,2.0636,2.0782,2.0786,2.0789,2.0816,2.0822,2.0828,0,0,0,0,0,2.0401,2.0448,2.0444,2.0455,2.0515,2.0561,2.0568,2.0574,2.0556,2.0579,2.0592,2.0584,2.0673,2.065,2.0661,2.0691,2.078,2.0785,2.0789,2.0813,2.0821,2.0828,0,0,0,0,0,0,2.0422,2.0452,2.0448,2.0506,2.0531,2.0558,2.0588,2.0583,2.0613,2.0609,2.0615,2.0622,2.0673,2.0687,2.066,2.0749,2.0724,2.0731,2.0738,2.0747,2.0753,2.0748,2.0639,0,0,0,0,0,2.0433,2.0469,2.0493,2.0542,2.0555,2.0569,2.059,2.0592,2.0617,2.0628,2.0645,2.067,2.0704,2.0726,2.0758,2.0817,2.0823,2.0843,2.0849,2.0855,2.086,2.0891,2.09,2.0805,2.0805,2.0805,0,0,2.0457,2.0478,2.05,2.0547,2.0567,2.0602,2.0578,2.0617,2.0644,2.0634,2.0683,2.0696,2.0724,2.0779,2.0804,2.0792,2.0888,2.086,2.0864,2.0867,2.0897,2.0906,2.0914,2.0808,2.0807,2.0807,0,0,2.052,2.0539,2.0582,2.0602,2.0632,2.0641,2.0651,2.0679,2.0687,2.0737,2.0729,2.076,2.0819,2.0839,2.0856,2.0925,2.0917,2.0935,2.0968,2.0998,2.1006,2.1012,2.1036,2.1044,2.094,2.0941,2.0941,0,2.0546,2.06,2.0605,2.0644,2.0665,2.0657,2.07,2.0719,2.0757,2.0771,2.0757,2.0829,2.0848,2.0907,2.0923,2.0938,2.0949,2.0932,2.1004,2.1011,2.1017,2.104,2.1049,2.0942,2.0942,2.0942,2.0942,0,2.063,2.0668,2.0699,2.0736,2.076,2.0801,2.0811,2.0834,2.0834,2.0844,2.0893,2.0915,2.0951,2.0965,2.0965,2.1024,2.1015,2.1003,2.0978,2.1028,2.1049,2.1058,2.0945,2.0944,2.0944,2.0943,0,0,2.0708,2.0747,2.0758,2.0775,2.0806,2.0835,2.0875,2.091,2.093,2.0956,2.0989,2.1038,2.1026,2.1046,2.1048,2.1075,2.1127,2.1059,2.106,2.107,2.1191,2.1201,2.1211,2.1122,2.1124,2.1125,2.1189,0,2.0773,2.0844,2.0849,2.0913,2.0947,2.0939,2.0974,2.0997,2.1007,2.1037,2.1048,2.1082,2.1064,2.1076,2.1102,2.1115,2.1151,2.111,2.1152,2.1154,2.1145,2.1222,2.1232,2.1291,2.1197,2.1199,2.12,0,2.0858,2.0887,2.0954,2.098,2.0994,2.1026,2.1058,2.1086,2.1111,2.1117,2.1139,2.1137,2.1177,2.115,2.1205,2.1177,2.1195,2.1203,2.1206,2.121,2.118,2.1227,2.131,2.1319,2.1213,2.1212,2.1211,0,2.0907,2.0963,2.101,2.1025,2.1056,2.1078,2.1092,2.1115,2.1135,2.1163,2.1176,2.1208,2.1226,2.125,2.1257,2.1237,2.1311,2.1285,2.1316,2.1316,2.1332,2.1331,2.1419,2.1344,2.1344,2.1344,2.1343,0,2.0979,2.102,2.1033,2.1062,2.1107,2.1112,2.1157,2.1169,2.119,2.1221,2.1216,2.1245,2.1252,2.1281,2.1286,2.1331,2.1339,2.1344,2.1344,2.1344,2.1343,2.1355,2.1351,2.1346,2.1345,2.1345,2.1345,0,2.1042,2.1052,2.1103,2.1128,2.1135,2.1168,2.1189,2.1216,2.1225,2.1264,2.1273,2.1288,2.1323,2.1331,2.1373,2.1376,2.1428,2.1425,2.142,2.1419,2.145,2.1446,2.1548,2.1561,2.1478,2.1479,2.1479,0,2.1087,2.1118,2.1147,2.1167,2.1182,2.1215,2.1235,2.1241,2.1262,2.1292,2.1316,2.135,2.1378,2.1433,2.1447,2.1479,2.1476,2.1509,2.1481,2.1479,2.1476,2.1474,2.1476,2.1515,2.1516,2.1516,2.1517,0,2.1165,2.1168,2.1198,2.123,2.1255,2.128,2.1304,2.1321,2.1329,2.1354,2.1389,2.1411,2.1453,2.1486,2.1518,2.1531,2.1525,2.1526,2.1535,2.1534,2.153,2.1532,2.1434,2.1524,2.1523,2.1522,2.1522,2.1522,2.122,2.1247,2.1271,2.1305,2.1323,2.1345,2.1372,2.1384,2.1414,2.1449,2.145,2.1488,2.1511,2.1553,2.1568,2.1598,2.1587,2.16,2.1603,2.1606,2.1609,2.1525,2.1603,2.1603,2.1603,2.1603,2.1603,0,2.1297,2.1312,2.1343,2.1376,2.1403,2.1395,2.1421,2.1443,2.1477,2.1499,2.1526,2.1566,2.1598,2.1614,2.1646,2.1666,2.1664,2.1675,2.1673,2.1676,2.1617,2.1606,2.1676,2.1676,2.1675,2.1675,2.1675,2.1675,2.1341,2.1386,2.1392,2.1446,2.146,2.1498,2.1513,2.1534,2.1551,2.1596,2.1623,2.1633,2.1652,2.1685,2.1714,2.1718,2.173,2.1741,2.1743,2.1688,2.168,2.1673,2.1663,2.1744,2.1744,2.18,2.1801,2.1801]}]]